{"data":{"norad_id":65619,"epoch":"2026-09-20T12:05:42.804960Z","epoch_age_seconds":152109,"freshness":"FRESH","line1":"1 65619U 25209C   26263.50396765 -.00000087  00000+0  73463-4 0  9997","line2":"2 65619  50.0021   9.3898 0001913  79.3070 280.8023 13.41474919 50432","mean_motion":13.41474919,"eccentricity":0.0001913,"inclination_deg":50.0021,"raan_deg":9.3898,"arg_perigee_deg":79.307,"mean_anomaly_deg":280.8023,"bstar":7.3463e-5,"rev_number":5043,"period_min":107.34453396068,"perigee_km":1102.3587638121,"apogee_km":1105.2213491039,"semimajor_km":7481.927056458,"source":"CELESTRAK","updated_at":"2026-09-21T09:00:15.474375Z"}}